Location: Borea
(45.6167°N, 23.0167°E)
Time: 10:21:29
(UTC+00:00)

Cosmos 1844 Rocket - Pass Details

Date: 03 February 2023
Orbit: 826 x 843 km, 71.0° (Epoch: 20 March)

Event Time Altitude Azimuth Distance (km) Brightness Sun altitude
Rises 17:42:13 0° 328° (NNW) 3,374 6.2 -22.2°
Reaches altitude 10° 17:44:44 10° 322° (NW) 2,436 5.5 -22.6°
Maximum altitude 17:49:59 44° 252° (WSW) 1,132 3.8 -23.5°
Drops below altitude 10° 17:55:13 10° 182° (S) 2,421 5.1 -24.4°
Sets 17:57:44 0° 176° (S) 3,351 5.8 -24.9°
